TimeCST,TemperatureF,Dew PointF,Humidity,Sea Level PressureIn,VisibilityMPH,Wind Direction,Wind SpeedMPH,Gust SpeedMPH,PrecipitationIn,Events,Conditions,WindDirDegrees,DateUTC
12:54 AM,19.0,10.9,71,29.87,10.0,South,9.2,-,N/A,,Clear,180,2013-01-16 06:54:00
2:54 AM,19.0,10.9,71,29.80,10.0,South,10.4,-,N/A,,Clear,170,2013-01-16 08:54:00
3:54 AM,17.1,10.9,77,29.74,10.0,South,11.5,-,N/A,,Clear,180,2013-01-16 09:54:00
4:54 AM,18.0,10.9,74,29.68,10.0,South,12.7,-,N/A,,Overcast,180,2013-01-16 10:54:00
5:54 AM,19.9,10.9,68,29.64,10.0,South,11.5,-,N/A,,Overcast,190,2013-01-16 11:54:00
6:49 AM,19.4,14.0,80,29.55,3.0,SSW,12.7,19.6,0.00,Snow,Light Snow,200,2013-01-16 12:49:00
6:54 AM,19.9,14.0,78,29.61,2.5,South,13.8,-,0.00,Snow,Light Snow,190,2013-01-16 12:54:00
7:05 AM,19.4,15.8,86,29.54,5.0,South,13.8,-,0.00,Snow,Light Snow,190,2013-01-16 13:05:00
7:39 AM,21.2,15.8,80,29.55,1.8,SW,8.1,17.3,0.00,Snow,Light Snow,220,2013-01-16 13:39:00
7:54 AM,21.0,17.1,85,29.62,2.5,SSW,9.2,-,0.00,Snow,Light Snow,210,2013-01-16 13:54:00
8:02 AM,21.2,17.6,86,29.55,3.0,SSW,8.1,-,0.00,Snow,Light Snow,210,2013-01-16 14:02:00
8:37 AM,21.2,17.6,86,29.55,2.0,SSW,9.2,-,0.00,Snow,Light Snow,210,2013-01-16 14:37:00
8:49 AM,23.0,17.6,80,29.55,5.0,SW,8.1,-,0.00,,Haze,220,2013-01-16 14:49:00
8:54 AM,23.0,18.0,81,29.61,6.0,SW,6.9,-,0.00,,Haze,220,2013-01-16 14:54:00
9:13 AM,24.8,17.6,74,29.55,10.0,SW,12.7,-,N/A,,Overcast,230,2013-01-16 15:13:00
9:54 AM,25.0,17.1,72,29.60,10.0,WSW,13.8,19.6,N/A,,Overcast,250,2013-01-16 15:54:00
10:54 AM,26.1,19.0,75,29.61,10.0,West,12.7,21.9,N/A,,Overcast,260,2013-01-16 16:54:00
11:54 AM,27.0,19.9,75,29.62,10.0,West,12.7,20.7,N/A,,Overcast,270,2013-01-16 17:54:00
12:54 PM,28.0,21.0,75,29.62,10.0,West,8.1,17.3,N/A,,Overcast,280,2013-01-16 18:54:00
1:54 PM,28.0,21.9,78,29.64,10.0,WNW,12.7,-,N/A,,Overcast,290,2013-01-16 19:54:00
2:54 PM,28.9,21.9,75,29.69,10.0,WNW,12.7,-,N/A,,Overcast,290,2013-01-16 20:54:00
3:54 PM,28.9,19.0,67,29.73,10.0,NW,12.7,20.7,N/A,,Overcast,310,2013-01-16 21:54:00
4:54 PM,28.0,15.1,58,29.79,10.0,NNW,15.0,-,N/A,,Overcast,330,2013-01-16 22:54:00
5:54 PM,24.1,10.9,57,29.86,10.0,NW,17.3,24.2,N/A,,Partly Cloudy,320,2013-01-16 23:54:00
6:54 PM,21.9,8.1,55,29.92,10.0,NW,12.7,19.6,N/A,,Mostly Cloudy,320,2013-01-17 00:54:00
7:54 PM,21.9,7.0,53,29.94,10.0,NW,10.4,19.6,N/A,,Overcast,310,2013-01-17 01:54:00
8:54 PM,21.0,10.0,63,29.98,10.0,NW,13.8,-,N/A,,Overcast,320,2013-01-17 02:54:00
9:11 PM,19.4,12.2,74,29.93,4.0,NW,17.3,-,0.00,Snow,Light Snow,320,2013-01-17 03:11:00
9:31 PM,19.4,12.2,74,29.95,2.0,NW,13.8,20.7,0.00,Snow,Light Snow,320,2013-01-17 03:31:00
9:37 PM,19.4,12.2,74,29.95,4.0,NW,11.5,-,0.00,Snow,Light Snow,310,2013-01-17 03:37:00
9:54 PM,19.0,10.9,71,30.02,10.0,NW,11.5,-,0.00,,Overcast,310,2013-01-17 03:54:00
10:15 PM,17.6,12.2,79,29.96,2.5,WNW,11.5,19.6,0.00,Snow,Light Snow,290,2013-01-17 04:15:00
10:23 PM,17.6,12.2,79,29.96,1.5,NW,11.5,-,0.00,Snow,Light Snow,320,2013-01-17 04:23:00
10:30 PM,17.6,10.4,73,29.97,3.0,NW,15.0,-,0.00,Snow,Light Snow,310,2013-01-17 04:30:00
10:54 PM,17.1,10.0,74,30.04,3.0,NW,11.5,-,0.00,Snow,Light Snow,320,2013-01-17 04:54:00
11:08 PM,15.8,10.4,79,29.98,9.0,NW,8.1,-,0.00,,Overcast,320,2013-01-17 05:08:00
11:54 PM,16.0,7.0,68,30.05,10.0,North,12.7,-,0.00,,Overcast,10,2013-01-17 05:54:00